FCYSMB OIBV-OMFJ

Flight info

Callsign FCYSMB
Flight time 1h 50m
Altitude 19000
Route 2646N05422E DCT 2631N05447E 2637N05456E 2658N05537E 2705N05559E DCT OIKB
Aircraft C414/L-SBDFGRY/S

Departure

Time 2026-04-28 15:21
Airport Lavan Airport (OIBV)

Arrival

Time 2026-04-28 17:11
Airport Fujairah International Airport (OMFJ)
Time Latitude Longitude Altitude Speed Heading
2026-04-28 15:08 26.80903 53.35150 71 ft 0 kts 197°
2026-04-28 15:15 26.80902 53.35150 71 ft 1 kts 199°
2026-04-28 15:15 26.80923 53.35131 74 ft 10 kts 357°
2026-04-28 15:15 26.81013 53.35163 76 ft 16 kts 34°
2026-04-28 15:16 26.81069 53.35199 76 ft 0 kts 28°
2026-04-28 15:16 26.81073 53.35202 77 ft 5 kts 26°
2026-04-28 15:17 26.81114 53.35229 77 ft 6 kts 54°
2026-04-28 15:17 26.81125 53.35274 77 ft 9 kts 104°
2026-04-28 15:17 26.81101 53.35346 73 ft 10 kts 110°
2026-04-28 15:17 26.81075 53.35421 73 ft 11 kts 112°
2026-04-28 15:18 26.81045 53.35507 70 ft 13 kts 111°
2026-04-28 15:18 26.81008 53.35615 75 ft 16 kts 111°
2026-04-28 15:18 26.80963 53.35747 74 ft 20 kts 111°
2026-04-28 15:18 26.80908 53.35901 75 ft 23 kts 110°
2026-04-28 15:19 26.80844 53.36066 73 ft 23 kts 118°
2026-04-28 15:19 26.80854 53.36094 73 ft 9 kts 286°
2026-04-28 15:19 26.80858 53.36081 74 ft 0 kts 294°
2026-04-28 15:20 26.80894 53.35988 72 ft 36 kts 294°
2026-04-28 15:20 26.81046 53.35559 72 ft 79 kts 293°
2026-04-28 15:20 26.81258 53.34913 209 ft 91 kts 292°
2026-04-28 15:20 26.81493 53.34191 393 ft 106 kts 296°
2026-04-28 15:21 26.81824 53.33418 615 ft 111 kts 297°
2026-04-28 15:21 26.82245 53.32654 819 ft 120 kts 307°
2026-04-28 15:21 26.82796 53.31878 871 ft 143 kts 317°
2026-04-28 15:21 26.83873 53.31404 645 ft 173 kts 349°
2026-04-28 15:22 26.85041 53.31497 846 ft 177 kts 14°
2026-04-28 15:22 26.86167 53.32194 798 ft 184 kts 28°
2026-04-28 15:22 26.87155 53.32978 1225 ft 164 kts 27°
2026-04-28 15:22 26.87985 53.33793 1644 ft 155 kts 36°
2026-04-28 15:23 26.88590 53.34843 1764 ft 171 kts 58°
2026-04-28 15:23 26.88956 53.36093 2060 ft 169 kts 75°
2026-04-28 15:23 26.89049 53.37381 2355 ft 167 kts 84°
2026-04-28 15:23 26.88967 53.38667 2649 ft 166 kts 96°
2026-04-28 15:24 26.88632 53.39944 2774 ft 174 kts 108°
2026-04-28 15:24 26.88156 53.41234 2741 ft 190 kts 117°
2026-04-28 15:24 26.87422 53.42504 2793 ft 191 kts 127°
2026-04-28 15:24 26.86618 53.43653 2957 ft 188 kts 132°
2026-04-28 15:25 26.85689 53.44684 3090 ft 182 kts 147°
2026-04-28 15:25 26.84666 53.45484 3306 ft 173 kts 150°
2026-04-28 15:25 26.83583 53.45927 3206 ft 175 kts 185°
2026-04-28 15:25 26.82390 53.45516 3183 ft 166 kts 210°
2026-04-28 15:26 26.81414 53.44977 3395 ft 151 kts 223°
2026-04-28 15:26 26.80538 53.44321 3442 ft 152 kts 225°
2026-04-28 15:26 26.79756 53.43545 3458 ft 153 kts 226°
2026-04-28 15:26 26.78657 53.43353 3434 ft 178 kts 168°
2026-04-28 15:27 26.77725 53.44261 3432 ft 184 kts 114°
2026-04-28 15:27 26.77677 53.45607 3511 ft 169 kts 64°
2026-04-28 15:27 26.78129 53.46783 3613 ft 161 kts 58°
2026-04-28 15:27 26.78612 53.47898 3702 ft 157 kts 57°
2026-04-28 15:28 26.79095 53.48980 3773 ft 154 kts 56°
2026-04-28 15:28 26.79576 53.50039 3811 ft 152 kts 56°
2026-04-28 15:28 26.80023 53.51103 3857 ft 152 kts 64°
2026-04-28 15:28 26.80262 53.52262 3892 ft 153 kts 77°
2026-04-28 15:29 26.80350 53.53449 3917 ft 153 kts 86°
2026-04-28 15:29 26.80298 53.54635 3953 ft 150 kts 92°
2026-04-28 15:29 26.80207 53.55773 4015 ft 144 kts 91°
2026-04-28 15:29 26.80145 53.56872 4053 ft 140 kts 89°
2026-04-28 15:30 26.80112 53.57945 4074 ft 136 kts 88°
2026-04-28 15:30 26.80084 53.58978 4088 ft 133 kts 88°
2026-04-28 15:30 26.80051 53.59919 4062 ft 131 kts 89°
2026-04-28 15:30 26.80002 53.60921 4069 ft 126 kts 90°
2026-04-28 15:31 26.79955 53.61875 4050 ft 121 kts 90°
2026-04-28 15:31 26.79917 53.62794 4036 ft 117 kts 88°
2026-04-28 15:31 26.79884 53.63700 4035 ft 115 kts 86°
2026-04-28 15:31 26.79857 53.64583 4055 ft 113 kts 89°
2026-04-28 15:32 26.79814 53.65489 4064 ft 119 kts 89°
2026-04-28 15:32 26.79784 53.66119 4106 ft 125 kts 88°
2026-04-28 15:32 26.79732 53.67470 4276 ft 131 kts 88°
2026-04-28 15:32 26.79692 53.68472 4507 ft 129 kts 88°
2026-04-28 15:33 26.79649 53.69555 4558 ft 148 kts 89°
2026-04-28 15:33 26.79590 53.70755 4701 ft 158 kts 88°
2026-04-28 15:33 26.79544 53.71953 5030 ft 150 kts 88°
2026-04-28 15:33 26.79485 53.73106 5383 ft 147 kts 90°
2026-04-28 15:34 26.79459 53.74227 5776 ft 143 kts 87°
2026-04-28 15:34 26.79400 53.75370 5974 ft 153 kts 88°
2026-04-28 15:34 26.79367 53.76617 6096 ft 167 kts 89°
2026-04-28 15:34 26.79298 53.77957 6237 ft 177 kts 92°
2026-04-28 15:35 26.79217 53.79359 6324 ft 186 kts 89°
2026-04-28 15:35 26.79099 53.82424 6327 ft 206 kts 89°
2026-04-28 15:35 26.79043 53.84036 6313 ft 211 kts 90°
2026-04-28 15:36 26.78951 53.85681 6319 ft 213 kts 91°
2026-04-28 15:36 26.78871 53.87346 6313 ft 215 kts 90°
2026-04-28 15:36 26.78813 53.89004 6313 ft 217 kts 89°
2026-04-28 15:36 26.78753 53.90699 6307 ft 218 kts 89°
2026-04-28 15:37 26.78659 53.92395 6310 ft 219 kts 91°
2026-04-28 15:37 26.78579 53.94094 6288 ft 218 kts 90°
2026-04-28 15:37 26.78522 53.95780 6297 ft 219 kts 90°
2026-04-28 15:37 26.78479 53.96928 6290 ft 218 kts 90°
2026-04-28 15:38 26.78364 53.99174 6293 ft 218 kts 91°
2026-04-28 15:38 26.78288 54.00868 6277 ft 217 kts 90°
2026-04-28 15:38 26.78215 54.02549 6280 ft 216 kts 89°
2026-04-28 15:38 26.78146 54.04236 6262 ft 217 kts 89°
2026-04-28 15:39 26.78067 54.05914 6249 ft 216 kts 90°
2026-04-28 15:39 26.78003 54.07586 6256 ft 215 kts 91°
2026-04-28 15:39 26.77923 54.09261 6277 ft 215 kts 90°
2026-04-28 15:39 26.77844 54.10941 6277 ft 217 kts 90°
2026-04-28 15:40 26.77774 54.12641 6280 ft 219 kts 90°
2026-04-28 15:40 26.77703 54.14346 6279 ft 219 kts 91°
2026-04-28 15:40 26.77604 54.16044 6283 ft 219 kts 91°
2026-04-28 15:40 26.77534 54.17740 6278 ft 218 kts 90°
2026-04-28 15:41 26.77465 54.19430 6283 ft 218 kts 90°
2026-04-28 15:41 26.77391 54.21125 6280 ft 218 kts 91°
2026-04-28 15:41 26.77303 54.22814 6279 ft 217 kts 91°
2026-04-28 15:41 26.77225 54.24496 6281 ft 217 kts 90°
2026-04-28 15:42 26.77158 54.26187 6278 ft 218 kts 89°
2026-04-28 15:42 26.77076 54.27883 6278 ft 218 kts 91°
2026-04-28 15:42 26.77000 54.29581 6273 ft 219 kts 91°
2026-04-28 15:42 26.76913 54.31283 6267 ft 219 kts 90°
2026-04-28 15:43 26.76831 54.32987 6268 ft 220 kts 90°
2026-04-28 15:43 26.76742 54.34692 6266 ft 220 kts 96°
2026-04-28 15:43 26.76346 54.36344 6268 ft 220 kts 109°
2026-04-28 15:43 26.75739 54.37922 6269 ft 221 kts 115°
2026-04-28 15:44 26.75045 54.39458 6268 ft 221 kts 118°
2026-04-28 15:44 26.74191 54.40876 6267 ft 219 kts 125°
2026-04-28 15:44 26.73316 54.42237 6269 ft 218 kts 123°
2026-04-28 15:44 26.72477 54.43648 6268 ft 217 kts 121°
2026-04-28 15:45 26.71658 54.45063 6264 ft 216 kts 122°
2026-04-28 15:45 26.70821 54.46456 6263 ft 217 kts 123°
2026-04-28 15:45 26.69974 54.47848 6266 ft 216 kts 123°
2026-04-28 15:45 26.69137 54.49248 6263 ft 216 kts 122°
2026-04-28 15:46 26.68306 54.50646 6262 ft 217 kts 122°
2026-04-28 15:46 26.67466 54.52052 6265 ft 218 kts 123°
2026-04-28 15:46 26.66618 54.53464 6265 ft 219 kts 123°
2026-04-28 15:46 26.65764 54.54880 6262 ft 220 kts 123°
2026-04-28 15:47 26.64913 54.56298 6266 ft 220 kts 123°
2026-04-28 15:47 26.64057 54.57727 6256 ft 221 kts 123°
2026-04-28 15:47 26.63201 54.59156 6257 ft 221 kts 123°
2026-04-28 15:47 26.62345 54.60585 6262 ft 221 kts 123°
2026-04-28 15:48 26.61484 54.62014 6259 ft 222 kts 123°
2026-04-28 15:48 26.60624 54.63445 6261 ft 222 kts 123°
2026-04-28 15:48 26.59762 54.64879 6259 ft 222 kts 123°
2026-04-28 15:48 26.58903 54.66311 6259 ft 222 kts 123°
2026-04-28 15:49 26.58042 54.67742 6257 ft 221 kts 123°
2026-04-28 15:49 26.57185 54.69168 6259 ft 221 kts 123°
2026-04-28 15:49 26.56339 54.70570 6255 ft 220 kts 123°
2026-04-28 15:49 26.55488 54.71985 6257 ft 219 kts 122°
2026-04-28 15:50 26.54643 54.73395 6254 ft 218 kts 123°
2026-04-28 15:50 26.53795 54.74804 6253 ft 219 kts 123°
2026-04-28 15:50 26.52945 54.76213 6256 ft 219 kts 123°
2026-04-28 15:50 26.52418 54.77761 6250 ft 214 kts 87°
2026-04-28 15:51 26.52764 54.79336 6257 ft 208 kts 64°
2026-04-28 15:51 26.53388 54.80785 6258 ft 207 kts 58°
2026-04-28 15:51 26.54135 54.82146 6256 ft 204 kts 50°
2026-04-28 15:51 26.55019 54.83385 6257 ft 204 kts 47°
2026-04-28 15:52 26.55896 54.84632 6255 ft 205 kts 49°
2026-04-28 15:52 26.56739 54.85922 6250 ft 206 kts 50°
2026-04-28 15:52 26.57583 54.87216 6249 ft 206 kts 50°
2026-04-28 15:52 26.58442 54.88498 6248 ft 206 kts 49°
2026-04-28 15:53 26.59307 54.89780 6249 ft 207 kts 50°
2026-04-28 15:53 26.60163 54.91072 6246 ft 207 kts 50°
2026-04-28 15:53 26.61014 54.92367 6246 ft 206 kts 51°
2026-04-28 15:53 26.61846 54.93671 6246 ft 206 kts 52°
2026-04-28 15:54 26.62593 54.95045 6248 ft 208 kts 58°
2026-04-28 15:54 26.63044 54.95986 6246 ft 207 kts 58°
2026-04-28 15:54 26.63987 54.97862 6248 ft 207 kts 56°
2026-04-28 15:54 26.64719 54.99246 6245 ft 207 kts 56°
2026-04-28 15:55 26.65440 55.00636 6244 ft 206 kts 56°
2026-04-28 15:55 26.66153 55.02033 6246 ft 207 kts 56°
2026-04-28 15:55 26.66867 55.03429 6246 ft 207 kts 56°
2026-04-28 15:55 26.67343 55.04348 6246 ft 206 kts 56°
2026-04-28 15:56 26.68061 55.05736 6248 ft 206 kts 56°
2026-04-28 15:56 26.68777 55.07126 6247 ft 207 kts 56°
2026-04-28 15:56 26.69492 55.08520 6246 ft 207 kts 56°
2026-04-28 15:56 26.70211 55.09914 6248 ft 207 kts 56°
2026-04-28 15:57 26.70930 55.11312 6254 ft 208 kts 56°
2026-04-28 15:57 26.71642 55.12714 6246 ft 207 kts 56°
2026-04-28 15:57 26.72366 55.14091 6240 ft 205 kts 56°
2026-04-28 15:57 26.73077 55.15476 6249 ft 206 kts 57°
2026-04-28 15:58 26.73780 55.16875 6242 ft 206 kts 56°
2026-04-28 15:58 26.74495 55.18257 6241 ft 205 kts 56°
2026-04-28 15:58 26.75210 55.19636 6242 ft 206 kts 56°
2026-04-28 15:58 26.75920 55.21029 6243 ft 206 kts 56°
2026-04-28 15:59 26.76630 55.22421 6244 ft 206 kts 56°
2026-04-28 15:59 26.77346 55.23813 6245 ft 207 kts 56°
2026-04-28 15:59 26.78061 55.25209 6245 ft 207 kts 56°
2026-04-28 15:59 26.78777 55.26608 6246 ft 208 kts 56°
2026-04-28 16:00 26.79503 55.28013 6241 ft 209 kts 57°
2026-04-28 16:00 26.80220 55.29424 6244 ft 209 kts 57°
2026-04-28 16:00 26.80934 55.30835 6244 ft 208 kts 56°
2026-04-28 16:00 26.81661 55.32238 6242 ft 209 kts 56°
2026-04-28 16:01 26.82384 55.33646 6245 ft 209 kts 56°
2026-04-28 16:01 26.83105 55.35057 6241 ft 209 kts 56°
2026-04-28 16:01 26.83822 55.36469 6241 ft 208 kts 56°
2026-04-28 16:01 26.84541 55.37877 6238 ft 208 kts 56°
2026-04-28 16:02 26.85263 55.39285 6239 ft 209 kts 56°
2026-04-28 16:02 26.85974 55.40677 6235 ft 209 kts 56°
2026-04-28 16:02 26.86693 55.42086 6238 ft 209 kts 56°
2026-04-28 16:02 26.87415 55.43499 6237 ft 209 kts 56°
2026-04-28 16:03 26.88134 55.44909 6237 ft 209 kts 56°
2026-04-28 16:03 26.88854 55.46322 6236 ft 209 kts 56°
2026-04-28 16:03 26.89574 55.47735 6229 ft 209 kts 56°
2026-04-28 16:03 26.90292 55.49143 6230 ft 208 kts 56°
2026-04-28 16:04 26.91011 55.50548 6232 ft 208 kts 56°
2026-04-28 16:04 26.91737 55.51978 6231 ft 208 kts 56°
2026-04-28 16:04 26.92441 55.53372 6232 ft 209 kts 56°
2026-04-28 16:04 26.93163 55.54781 6234 ft 208 kts 56°
2026-04-28 16:05 26.93882 55.56189 6235 ft 208 kts 56°
2026-04-28 16:05 26.94600 55.57598 6231 ft 208 kts 56°
2026-04-28 16:05 26.95313 55.59007 6284 ft 206 kts 56°
2026-04-28 16:05 26.96018 55.60433 6110 ft 211 kts 58°
2026-04-28 16:06 26.96678 55.61903 5894 ft 211 kts 59°
2026-04-28 16:06 26.97275 55.63407 5678 ft 212 kts 65°
2026-04-28 16:06 26.97737 55.64981 5477 ft 213 kts 68°
2026-04-28 16:06 26.98204 55.66552 5263 ft 212 kts 66°
2026-04-28 16:07 26.98714 55.68097 5047 ft 211 kts 65°
2026-04-28 16:07 26.99223 55.69640 4863 ft 211 kts 66°
2026-04-28 16:07 27.00184 55.72708 4430 ft 204 kts 65°
2026-04-28 16:08 27.00659 55.74190 4212 ft 200 kts 65°
2026-04-28 16:08 27.01133 55.75654 3992 ft 199 kts 65°
2026-04-28 16:08 27.01597 55.77111 3785 ft 198 kts 65°
2026-04-28 16:09 27.02524 55.80002 3369 ft 196 kts 67°
2026-04-28 16:09 27.02973 55.81445 3175 ft 196 kts 67°
2026-04-28 16:09 27.03431 55.82882 2975 ft 195 kts 66°
2026-04-28 16:10 27.04345 55.85754 2534 ft 195 kts 67°
2026-04-28 16:10 27.04790 55.87160 2488 ft 186 kts 67°
2026-04-28 16:10 27.05659 55.89888 2480 ft 190 kts 67°
2026-04-28 16:11 27.06557 55.92735 2495 ft 198 kts 67°
2026-04-28 16:11 27.07488 55.95662 2499 ft 201 kts 67°
2026-04-28 16:12 27.08427 55.98623 2491 ft 201 kts 69°
2026-04-28 16:12 27.08880 56.00107 2512 ft 202 kts 67°
2026-04-28 16:13 27.09852 56.03090 2509 ft 204 kts 68°
2026-04-28 16:13 27.10318 56.04592 2514 ft 203 kts 68°
2026-04-28 16:13 27.11266 56.07608 2529 ft 205 kts 68°
2026-04-28 16:14 27.12220 56.10660 2518 ft 207 kts 68°
2026-04-28 16:14 27.13179 56.13661 2518 ft 203 kts 68°
2026-04-28 16:15 27.14113 56.16651 2518 ft 203 kts 68°
2026-04-28 16:15 27.14579 56.18147 2518 ft 203 kts 67°
2026-04-28 16:15 27.15061 56.19639 2526 ft 204 kts 68°
2026-04-28 16:16 27.15999 56.22661 2517 ft 206 kts 69°
2026-04-28 16:16 27.16430 56.24216 2249 ft 210 kts 69°
2026-04-28 16:17 27.17409 56.27300 1714 ft 201 kts 66°
2026-04-28 16:17 27.17904 56.28705 1636 ft 186 kts 66°
2026-04-28 16:17 27.18299 56.30049 1672 ft 175 kts 72°
2026-04-28 16:17 27.18657 56.31320 1643 ft 170 kts 68°
2026-04-28 16:18 27.19095 56.32557 1558 ft 169 kts 64°
2026-04-28 16:18 27.19574 56.33786 1325 ft 174 kts 62°
2026-04-28 16:18 27.20091 56.35025 1044 ft 177 kts 63°
2026-04-28 16:18 27.20478 56.36353 794 ft 176 kts 72°
2026-04-28 16:19 27.20930 56.37527 858 ft 156 kts 66°
2026-04-28 16:19 27.21336 56.38642 862 ft 146 kts 53°
2026-04-28 16:19 27.22028 56.39426 869 ft 137 kts 33°
2026-04-28 16:19 27.22785 56.40044 864 ft 129 kts 35°
2026-04-28 16:20 27.23478 56.40653 838 ft 128 kts 34°
2026-04-28 16:20 27.24189 56.41244 773 ft 127 kts 33°
2026-04-28 16:20 27.24932 56.41788 785 ft 128 kts 23°
2026-04-28 16:20 27.25642 56.41635 847 ft 114 kts 270°
2026-04-28 16:21 27.25366 56.40857 1018 ft 106 kts 241°
2026-04-28 16:21 27.24940 56.40201 1209 ft 106 kts 232°
2026-04-28 16:21 27.24366 56.39586 1146 ft 125 kts 222°
2026-04-28 16:21 27.23572 56.38984 638 ft 148 kts 212°
2026-04-28 16:22 27.22670 56.38428 191 ft 142 kts 208°
2026-04-28 16:22 27.21873 56.37957 50 ft 119 kts 209°
2026-04-28 16:22 27.21184 56.37568 69 ft 109 kts 206°
2026-04-28 16:22 27.20461 56.37123 213 ft 128 kts 211°
2026-04-28 16:23 27.19617 56.36689 353 ft 145 kts 201°
2026-04-28 16:23 27.18625 56.36488 654 ft 148 kts 183°
2026-04-28 16:23 27.17582 56.36625 789 ft 160 kts 159°
2026-04-28 16:23 27.16925 56.37674 953 ft 174 kts 99°
2026-04-28 16:24 27.17252 56.38924 1189 ft 174 kts 47°
2026-04-28 16:24 27.18096 56.39878 1501 ft 171 kts 40°
2026-04-28 16:24 27.18972 56.40780 1816 ft 171 kts 38°
2026-04-28 16:24 27.19862 56.41664 2097 ft 170 kts 37°
2026-04-28 16:25 27.20751 56.42534 2355 ft 169 kts 36°
2026-04-28 16:25 27.21631 56.43392 2598 ft 167 kts 36°
2026-04-28 16:25 27.22401 56.44375 2824 ft 169 kts 50°
2026-04-28 16:25 27.23205 56.45270 3001 ft 159 kts 15°
2026-04-28 16:26 27.24232 56.45305 3187 ft 146 kts 326°
2026-04-28 16:26 27.24742 56.44412 3356 ft 138 kts 288°
2026-04-28 16:26 27.24997 56.43333 3338 ft 148 kts 277°
2026-04-28 16:26 27.24553 56.42279 3251 ft 170 kts 219°
2026-04-28 16:27 27.23333 56.42007 3161 ft 188 kts 186°
2026-04-28 16:27 27.22011 56.42026 3162 ft 192 kts 183°
2026-04-28 16:27 27.19323 56.42046 3226 ft 195 kts 188°
2026-04-28 16:28 27.17967 56.41944 3310 ft 194 kts 192°
2026-04-28 16:28 27.17075 56.41755 3358 ft 194 kts 198°
2026-04-28 16:28 27.15335 56.41249 3391 ft 197 kts 200°
2026-04-28 16:28 27.14011 56.40823 3398 ft 199 kts 201°
2026-04-28 16:29 27.11326 56.40007 3397 ft 204 kts 186°
2026-04-28 16:29 27.09361 56.42074 3393 ft 217 kts 93°
2026-04-28 16:30 27.09665 56.43693 3398 ft 212 kts 69°
2026-04-28 16:30 27.09613 56.45327 3414 ft 216 kts 114°
2026-04-28 16:30 27.08596 56.46506 3427 ft 212 kts 159°
2026-04-28 16:30 27.07186 56.46610 3434 ft 203 kts 197°
2026-04-28 16:31 27.05815 56.46240 3417 ft 202 kts 198°
2026-04-28 16:31 27.04465 56.45830 3415 ft 201 kts 200°
2026-04-28 16:31 27.03113 56.45399 3419 ft 203 kts 200°
2026-04-28 16:31 27.01765 56.44952 3407 ft 200 kts 201°
2026-04-28 16:32 27.00438 56.44499 3407 ft 198 kts 201°
2026-04-28 16:32 26.97799 56.43587 3407 ft 199 kts 201°
2026-04-28 16:32 26.96480 56.43130 3407 ft 199 kts 201°
2026-04-28 16:33 26.95159 56.42673 3407 ft 199 kts 201°
2026-04-28 16:33 26.94710 56.42518 3407 ft 199 kts 201°
2026-04-28 16:33 26.92508 56.41771 3407 ft 199 kts 201°
2026-04-28 16:33 26.91183 56.41320 3410 ft 199 kts 201°
2026-04-28 16:34 26.89859 56.40861 3405 ft 199 kts 201°
2026-04-28 16:34 26.88534 56.40410 3409 ft 199 kts 201°
2026-04-28 16:34 26.87206 56.39952 3433 ft 201 kts 201°
2026-04-28 16:34 26.85866 56.39503 3419 ft 201 kts 201°
2026-04-28 16:35 26.84519 56.39058 3433 ft 202 kts 201°
2026-04-28 16:35 26.83169 56.38616 3416 ft 202 kts 201°
2026-04-28 16:35 26.81821 56.38188 3410 ft 202 kts 195°
2026-04-28 16:35 26.80406 56.38256 3414 ft 204 kts 178°
2026-04-28 16:36 26.78989 56.38389 3410 ft 204 kts 180°
2026-04-28 16:36 26.77570 56.38484 3413 ft 204 kts 181°
2026-04-28 16:36 26.76151 56.38560 3410 ft 204 kts 182°
2026-04-28 16:36 26.74733 56.38626 3409 ft 204 kts 182°
2026-04-28 16:37 26.73319 56.38642 3410 ft 203 kts 186°
2026-04-28 16:37 26.71912 56.38558 3410 ft 203 kts 188°
2026-04-28 16:37 26.70501 56.38478 3408 ft 204 kts 186°
2026-04-28 16:38 26.67676 56.38394 3405 ft 202 kts 186°
2026-04-28 16:38 26.66272 56.38336 3409 ft 202 kts 187°
2026-04-28 16:38 26.64867 56.38273 3408 ft 202 kts 186°
2026-04-28 16:38 26.63936 56.38239 3404 ft 202 kts 186°
2026-04-28 16:39 26.62054 56.38179 3404 ft 202 kts 187°
2026-04-28 16:39 26.60653 56.38118 3446 ft 199 kts 187°
2026-04-28 16:39 26.59744 56.38081 3541 ft 196 kts 187°
2026-04-28 16:39 26.57939 56.38016 3680 ft 193 kts 187°
2026-04-28 16:40 26.56601 56.37958 3800 ft 192 kts 187°
2026-04-28 16:40 26.55715 56.37923 3885 ft 192 kts 186°
2026-04-28 16:40 26.53939 56.37859 4029 ft 193 kts 186°
2026-04-28 16:40 26.52589 56.37811 4126 ft 195 kts 187°
2026-04-28 16:41 26.51235 56.37756 4222 ft 195 kts 186°
2026-04-28 16:41 26.50317 56.37713 4288 ft 196 kts 186°
2026-04-28 16:41 26.48954 56.37662 4398 ft 196 kts 186°
2026-04-28 16:41 26.47587 56.37616 4519 ft 197 kts 186°
2026-04-28 16:42 26.45769 56.37549 4669 ft 198 kts 186°
2026-04-28 16:42 26.44837 56.37512 4744 ft 199 kts 186°
2026-04-28 16:42 26.43454 56.37455 4839 ft 199 kts 186°
2026-04-28 16:42 26.42066 56.37400 4944 ft 200 kts 186°
2026-04-28 16:43 26.40677 56.37348 5045 ft 200 kts 186°
2026-04-28 16:43 26.39286 56.37294 5151 ft 200 kts 186°
2026-04-28 16:43 26.37891 56.37241 5269 ft 201 kts 186°
2026-04-28 16:43 26.36506 56.37170 5332 ft 205 kts 186°
2026-04-28 16:44 26.35050 56.37139 5343 ft 212 kts 185°
2026-04-28 16:44 26.33562 56.37089 5330 ft 216 kts 186°
2026-04-28 16:44 26.32050 56.37015 5356 ft 219 kts 186°
2026-04-28 16:44 26.30528 56.36949 5440 ft 218 kts 186°
2026-04-28 16:45 26.29022 56.36895 5533 ft 216 kts 185°
2026-04-28 16:45 26.27476 56.36848 5064 ft 232 kts 185°
2026-04-28 16:45 26.25882 56.36788 5022 ft 224 kts 186°
2026-04-28 16:45 26.24349 56.36705 5019 ft 217 kts 186°
2026-04-28 16:46 26.22856 56.36656 5035 ft 213 kts 185°
2026-04-28 16:46 26.21387 56.36614 5049 ft 210 kts 185°
2026-04-28 16:46 26.19925 56.36557 5075 ft 210 kts 185°
2026-04-28 16:46 26.18465 56.36496 5078 ft 209 kts 185°
2026-04-28 16:47 26.17011 56.36436 5083 ft 209 kts 185°
2026-04-28 16:47 26.15556 56.36379 5082 ft 209 kts 185°
2026-04-28 16:47 26.14098 56.36328 5088 ft 209 kts 185°
2026-04-28 16:47 26.12642 56.36276 5089 ft 209 kts 185°
2026-04-28 16:48 26.11177 56.36210 5114 ft 212 kts 186°
2026-04-28 16:48 26.09697 56.36147 5127 ft 212 kts 184°
2026-04-28 16:48 26.08233 56.36107 5110 ft 209 kts 185°
2026-04-28 16:48 26.06775 56.36058 5130 ft 210 kts 184°
2026-04-28 16:49 26.05320 56.35977 5086 ft 209 kts 185°
2026-04-28 16:49 26.03872 56.35937 5089 ft 208 kts 183°
2026-04-28 16:49 26.02427 56.35875 5094 ft 208 kts 185°
2026-04-28 16:49 26.00978 56.35828 5103 ft 209 kts 185°
2026-04-28 16:50 25.99529 56.35768 5101 ft 207 kts 185°
2026-04-28 16:50 25.98089 56.35707 5073 ft 206 kts 186°
2026-04-28 16:50 25.96649 56.35685 5010 ft 209 kts 187°
2026-04-28 16:50 25.95201 56.35578 4719 ft 210 kts 188°
2026-04-28 16:51 25.93696 56.35569 4056 ft 225 kts 181°
2026-04-28 16:51 25.92097 56.35506 3488 ft 234 kts 188°
2026-04-28 16:51 25.90485 56.35380 3230 ft 227 kts 187°
2026-04-28 16:51 25.89037 56.35006 3604 ft 211 kts 200°
2026-04-28 16:52 25.87618 56.34664 3848 ft 209 kts 189°
2026-04-28 16:52 25.86091 56.34624 3487 ft 229 kts 184°
2026-04-28 16:52 25.84572 56.34479 3626 ft 215 kts 182°
2026-04-28 16:52 25.83110 56.34412 3559 ft 207 kts 198°
2026-04-28 16:53 25.81744 56.33942 3539 ft 206 kts 196°
2026-04-28 16:53 25.80322 56.33696 3590 ft 208 kts 188°
2026-04-28 16:53 25.78864 56.33743 3600 ft 210 kts 176°
2026-04-28 16:53 25.77413 56.33919 3618 ft 209 kts 175°
2026-04-28 16:54 25.75978 56.34123 3585 ft 207 kts 175°
2026-04-28 16:54 25.74541 56.34267 3562 ft 207 kts 183°
2026-04-28 16:54 25.73102 56.34183 3548 ft 207 kts 187°
2026-04-28 16:54 25.71664 56.34039 3539 ft 208 kts 188°
2026-04-28 16:55 25.70225 56.33894 3538 ft 208 kts 186°
2026-04-28 16:55 25.68780 56.33859 3541 ft 208 kts 182°
2026-04-28 16:55 25.67337 56.33860 3539 ft 207 kts 183°
2026-04-28 16:55 25.65892 56.33826 3522 ft 208 kts 184°
2026-04-28 16:56 25.64446 56.33770 3521 ft 208 kts 184°
2026-04-28 16:56 25.63005 56.33730 3515 ft 207 kts 184°
2026-04-28 16:56 25.61563 56.33705 3504 ft 207 kts 184°
2026-04-28 16:56 25.60122 56.33665 3503 ft 207 kts 184°
2026-04-28 16:57 25.58682 56.33624 3484 ft 207 kts 184°
2026-04-28 16:57 25.57253 56.33593 3465 ft 201 kts 184°
2026-04-28 16:57 25.55893 56.33562 3454 ft 196 kts 184°
2026-04-28 16:57 25.54545 56.33520 3386 ft 192 kts 184°
2026-04-28 16:58 25.53214 56.33485 3327 ft 190 kts 184°
2026-04-28 16:58 25.51895 56.33454 3282 ft 189 kts 184°
2026-04-28 16:58 25.50586 56.33421 3232 ft 189 kts 184°
2026-04-28 16:58 25.49264 56.33390 3225 ft 191 kts 184°
2026-04-28 16:59 25.47937 56.33357 3221 ft 191 kts 185°
2026-04-28 16:59 25.46610 56.33366 3140 ft 192 kts 178°
2026-04-28 16:59 25.45299 56.33676 3078 ft 194 kts 167°
2026-04-28 16:59 25.44003 56.34094 3040 ft 194 kts 165°
2026-04-28 17:00 25.42714 56.34539 3003 ft 194 kts 165°
2026-04-28 17:00 25.41431 56.34995 2986 ft 194 kts 164°
2026-04-28 17:00 25.40146 56.35458 2955 ft 194 kts 164°
2026-04-28 17:00 25.38860 56.35924 2911 ft 194 kts 164°
2026-04-28 17:01 25.37577 56.36389 2866 ft 194 kts 164°
2026-04-28 17:01 25.36297 56.36853 2833 ft 194 kts 164°
2026-04-28 17:01 25.35019 56.37314 2792 ft 193 kts 164°
2026-04-28 17:01 25.33756 56.37769 2800 ft 190 kts 164°
2026-04-28 17:02 25.32466 56.38232 2573 ft 199 kts 163°
2026-04-28 17:02 25.31599 56.38538 2425 ft 197 kts 164°
2026-04-28 17:02 25.29873 56.39164 2168 ft 193 kts 164°
2026-04-28 17:02 25.28605 56.39633 1954 ft 191 kts 163°
2026-04-28 17:03 25.26092 56.40519 1560 ft 188 kts 164°
2026-04-28 17:03 25.24844 56.40956 1373 ft 187 kts 165°
2026-04-28 17:03 25.23606 56.41377 1173 ft 185 kts 163°
2026-04-28 17:04 25.21275 56.42115 1227 ft 163 kts 164°
2026-04-28 17:04 25.20207 56.42447 1304 ft 158 kts 164°
2026-04-28 17:05 25.18086 56.43155 1328 ft 160 kts 164°
2026-04-28 17:05 25.17013 56.43499 1328 ft 161 kts 164°
2026-04-28 17:05 25.15942 56.43847 1327 ft 160 kts 164°
2026-04-28 17:06 25.13820 56.44544 1325 ft 158 kts 164°
2026-04-28 17:06 25.12764 56.44894 1329 ft 159 kts 164°
2026-04-28 17:06 25.10651 56.45617 1337 ft 158 kts 164°
2026-04-28 17:07 25.09601 56.45972 1336 ft 157 kts 164°
2026-04-28 17:07 25.08558 56.46327 1379 ft 154 kts 167°
2026-04-28 17:07 25.07556 56.46433 1755 ft 135 kts 189°
2026-04-28 17:07 25.06736 56.46093 2048 ft 125 kts 223°
2026-04-28 17:08 25.06286 56.45259 2081 ft 137 kts 264°
2026-04-28 17:08 25.06422 56.44157 1853 ft 154 kts 289°
2026-04-28 17:08 25.06837 56.43065 1560 ft 156 kts 296°
2026-04-28 17:08 25.07331 56.42007 1287 ft 156 kts 299°
2026-04-28 17:09 25.07810 56.40954 970 ft 147 kts 298°
2026-04-28 17:09 25.08224 56.39990 801 ft 131 kts 297°
2026-04-28 17:09 25.08626 56.39132 545 ft 122 kts 297°
2026-04-28 17:09 25.09000 56.38308 300 ft 117 kts 295°
2026-04-28 17:10 25.09291 56.37529 308 ft 103 kts 290°
2026-04-28 17:10 25.09555 56.36823 292 ft 99 kts 291°
2026-04-28 17:10 25.09813 56.36125 242 ft 101 kts 291°
2026-04-28 17:10 25.10075 56.35411 212 ft 99 kts 291°
2026-04-28 17:11 25.10342 56.34713 177 ft 98 kts 292°
2026-04-28 17:11 25.10611 56.34014 87 ft 98 kts 291°
2026-04-28 17:11 25.10835 56.33410 62 ft 71 kts 291°
2026-04-28 17:11 25.10952 56.33086 71 ft 26 kts 290°
2026-04-28 17:12 25.11044 56.32962 75 ft 17 kts 330°
2026-04-28 17:12 25.11071 56.33000 73 ft 6 kts 85°
2026-04-28 17:12 25.11088 56.33013 74 ft 0 kts 351°
2026-04-28 17:13 25.11087 56.33013 76 ft 0 kts 350°